#timestamp,LO_Frequency,Hit 
1504710015.2,286047002.8,N
1504710035.9,286047002.3,N
1504710055.7,286047002.8,N
1504710075.6,286047000.9,N
1504710095.4,286047002.6,N
1504710115.2,286047000.0,N
1504710135.1,286046999.9,N
1504710136.0,286046999.9,N
1504710155.8,286047000.4,N
1504710175.7,286047000.1,N
1504710195.5,286046999.9,N
1504710215.3,286047000.4,N
1504710235.2,286047000.8,N
1504710255.0,286046999.3,N
1504710255.9,286046999.3,N
1504710275.8,286046998.6,N
1504710295.6,286046998.4,N
1504710315.4,286046998.2,N
1504710335.3,286046998.2,N
1504710355.1,286047002.7,N
1504710375.8,286047000.9,N
1504710395.7,286046998.1,N
1504710415.5,286047000.8,N
1504710435.4,286047000.4,N
1504710455.2,286047001.2,N
1504710475.0,286046998.2,N
1504710475.9,286046998.2,N
1504710495.8,286046998.7,N
1504710515.6,286047001.0,N
1504710535.5,286047001.0,N
1504710555.3,286047000.2,N
1504710575.1,286047002.2,N
1504710595.9,286047000.3,N
1504710615.7,286046999.8,N
1504710635.5,286047000.2,N
1504710655.4,286047000.4,N
1504710675.2,286047002.4,N
1504710695.1,286047002.0,N
1504710696.0,286047002.0,N
1504710715.8,286047001.6,N
1504710735.6,286047001.3,N
1504710755.5,286047001.6,N
1504710775.3,286047002.5,N
1504710795.2,286047002.0,N
1504710815.9,286047002.2,N
1504710835.7,286047000.2,N
1504710855.6,286047000.3,N
1504710875.4,286047000.4,N
1504710895.2,286047001.2,N
1504710915.1,286047001.1,N
1504710916.0,286047001.1,N
1504710935.8,286046998.8,N
1504710955.7,286046998.5,N
1504710975.5,286046998.3,N
1504710995.3,286047000.1,N
1504711015.2,286046998.5,N
1504711035.0,286046998.1,N
1504711035.9,286046998.1,N
1504711055.8,286047001.2,N
1504711075.6,286046999.0,N
1504711095.4,286046998.7,N
1504711115.3,286047001.2,N
1504711135.1,286047001.2,N
1504711155.8,286047000.6,N
1504711175.7,286046998.4,N
1504711195.5,286046998.3,N
1504711215.4,286046998.5,N
1504711235.2,286047001.2,N
1504711255.0,286046999.4,N
1504711255.9,286046999.4,N
1504711275.8,286046998.8,N
1504711295.6,286047000.9,N
1504711315.4,286046998.2,N
1504711335.3,286046998.4,N
1504711355.1,286046999.3,N
1504711375.9,286046999.6,N
1504711395.7,286046997.1,N
1504711415.5,286046996.6,N
1504711435.4,286046998.9,N
1504711455.2,286046998.9,N
1504711475.1,286046998.8,N
1504711476.0,286046998.8,N
1504711495.8,286046998.2,N
1504711515.6,286046997.1,N
1504711535.5,286046998.8,N
1504711555.3,286047001.1,N
1504711575.1,286047001.1,N
1504711595.9,286047000.4,N
1504711615.7,286047000.6,N
1504711635.6,286047000.6,N
1504711655.4,286047000.4,N
1504711675.2,286047002.3,N
1504711695.1,286047001.9,N
1504711696.0,286047001.9,N
1504711715.8,286046999.8,N
1504711735.7,286047000.3,N
1504711755.5,286047000.4,N
1504711775.3,286047001.2,N
1504711795.2,286046998.7,N
1504711815.0,286046998.3,N
1504711815.9,286046998.3,N
1504711835.7,286046998.8,N
1504711855.6,286046999.3,N
1504711875.4,286046998.6,N
1504711895.3,286046998.7,N
1504711915.1,286046998.3,N
1504711916.0,286046998.3,N
1504711935.8,286046999.4,N
1504711955.7,286046999.0,N
1504711975.5,286046999.3,N
1504711995.4,286046996.8,N
1504712015.2,286046996.6,N
1504712035.0,286046999.4,N
1504712035.9,286046999.4,N
1504712055.8,286046998.3,N
1504712075.6,286047001.1,N
1504712095.4,286046998.8,N
1504712115.3,286046998.1,N
1504712135.1,286046998.8,N
1504712155.9,286046996.6,N
1504712175.7,286046999.4,N
1504712195.5,286046998.5,N
1504712215.4,286047001.1,N
1504712235.2,286047001.1,N
1504712255.1,286047000.4,N
1504712256.0,286047000.4,N
1504712275.8,286047000.9,N
1504712295.6,286047000.0,N
1504712315.5,286047000.8,N
1504712335.3,286047000.3,N
1504712355.1,286047000.9,N
1504712375.9,286047001.0,N
1504712395.7,286047000.0,N
1504712415.6,286047000.1,N
1504712435.4,286046999.7,N
1504712455.2,286047002.2,N
1504712475.1,286047002.3,N
1504712476.0,286047002.3,N
1504712495.8,286047000.2,N
1504712515.7,286047002.6,N
1504712535.5,286047002.0,N
1504712555.3,286047001.8,N
1504712575.2,286047001.9,N
1504712595.0,286047002.0,N
1504712595.9,286047002.0,N
1504712615.7,286047001.6,N
1504712635.6,286047005.8,P
1504712655.4,286047005.4,N
1504712675.3,286047003.3,N
1504712695.1,286047003.9,N
1504712715.8,286047004.4,N
1504712735.7,286047002.1,N
1504712755.5,286047001.9,N
1504712775.4,286046999.7,N
1504712795.2,286047002.7,N
1504712815.0,286047002.4,N
1504712815.9,286047002.4,N
1504712835.8,286046999.9,N
1504712855.6,286047000.1,N
1504712875.4,286047002.3,N
1504712895.3,286047003.6,N
1504712915.1,286047003.5,N
1504712935.9,286047003.3,N
1504712955.7,286047005.7,P
1504712975.5,286047003.2,N
1504712995.4,286047006.0,P
1504713015.2,286047003.6,N
1504713035.0,286047001.4,N
1504713035.9,286047001.4,N
1504713055.8,286047003.7,N
1504713075.6,286047003.3,N
1504713095.5,286047006.2,P
1504713115.3,286047003.5,N
1504713135.1,286047002.2,N
1504713155.9,286047006.7,P
1504713175.7,286047000.8,N
1504713195.6,286047000.3,N
1504713215.4,286047002.8,N
1504713235.2,286047000.3,N
1504713255.1,286046998.4,N
1504713256.0,286046998.4,N
1504713275.8,286047000.7,N
1504713295.7,286047000.5,N
1504713315.5,286046999.1,N
1504713335.3,286046996.9,N
1504713355.2,286046996.8,N
1504713375.0,286047000.7,N
1504713375.9,286047000.7,N
1504713395.7,286047000.8,N
1504713415.6,286046996.9,N
1504713435.4,286046995.4,N
1504713455.3,286046997.3,N
1504713475.1,286047000.3,N
1504713476.0,286047000.3,N
1504713495.8,286047000.7,N
1504713515.7,286047000.8,N
1504713535.5,286046998.3,N
1504713555.4,286047002.0,N
1504713575.2,286047001.8,N
1504713595.0,286047002.6,N
1504713595.9,286047002.6,N
